Погода в Монелье

Италия     44°14′34″N   9°29′16″E
темп.,
°C
ветер,
м/с
пор.,
м/с
влажн.,
%
обл.,
%
осадки,
мм/ч
давл.,
гПа
погр.,
м
7 мая, пт
пт723:00+13ю51094100 0.2 1012856
02:00+13ю51097100 0.9 1010833
05:00+13ю6119285 0.4 1008826
08:00+14ююв599173 0.6 1008697
11:00+16вюв448038 0.3 1008680
14:00+18юв336485 0.3 10091000
17:00+16вюв4675100 0.1 1009728
20:00+14в4588100 0.1 1010272
8 мая, сб
сб823:00+12всв3492100 0.0 101288
02:00+11всв33892 0.0 101448
05:00+10св338499 0.0 101557
08:00+14всв347585 0.0 1017207
11:00+18ююз125858 0.0 10181119
14:00+17зсз116754 0.0 1019714
17:00+17з22646 0.0 1018697
20:00+15св22775 0.0 101825
9 мая, вс
вс923:00+11св34875 0.0 102066
02:00+11св34844 0.0 101967
05:00+11св34840 0.0 101968
08:00+14св23725 0.0 1019134
11:00+19ююз1256100 0.0 10181019
14:00+19ююз23566 0.0 1018860
17:00+19ююв2357100 0.0 1017710
20:00+15вюв228074 0.0 101726
10 мая, пн
пн1023:00+14св328256 0.0 101836
02:00+13ссв228199 0.0 101717
05:00+13всв22835 0.0 101628
08:00+16в2374100 0.0 1016121
11:00+19юв36527 0.0 10161000
14:00+20юв4757100 0.0 10161098
17:00+18вюв4106497 0.0 1015904
20:00+14в479397 0.7 1015315
11 мая, вт
вт1123:00+13всв349251 0.0 101569
02:00+13св3286100 0.0 101435
05:00+13с3393100 3.3 101371
08:00+12в3496100 19.6 1013180
11:00+13ююв1198100 5.1 1012107
14:00+13ююв3699100 15.2 1011468
17:00+13юв3598100 9.2 1009284
20:00+12в2396100 19.6 1008127